User: anonymous   Login
Location: Sperry Observatory
(40.6664°N, 74.3236°W)
Time: 00:36:50
(UTC-05:00)
Language:

UOSAT-12 - Orbit

View from above orbital plane
View from above orbital plane
View from above satellite
View from above satellite

Ground track
Ground track

The orbit data is extracted from the following two-line orbital elements,

1 25693U 99021A   15031.06432942  .00000338  00000-0  62543-4 0  7341
2 25693 064.5560 280.6234 0048187 258.8355 204.6843 14.80286955851641
Epoch (UTC): 31 January 2015 01:32:38
Eccentricity: 0.0048187
inclination: 64.5560°
perigee height: 594 km
apogee height: 662 km
right ascension of ascending node: 280.6234°
argument of perigee: 258.8355°
revolutions per day: 14.80286955
mean anomaly at epoch: 204.6843°
orbit number at epoch: 85164

The dashed part of the orbit path shows where the satellite is in the earth's shadow,  

DLR